Tracking 27122 objects as of 26-Mar-2023
HD Live streaming from Space Station
objects crossing your sky now

SL-6 R/B(2)

Track SL-6 R/B(2) now!


NORAD ID: 19810
Int'l Code: 1989-014D
Perigee: 2,537.4 km
Apogee: 36,668.2 km
Inclination: 64.1 °
Period: 694.3 minutes
Semi major axis: 25973 km
RCS: 8.2817 m2 (large)
Launch date: February 15, 1989
Source: Commonwealth of Independent States (former USSR) (CIS)
Launch site: TYURATAM MISSILE AND SPACE COMPLEX (TTMTR)

Note: This is a ROCKET BODY
Your satellite tracking list
Your tracking list is empty




NASA's NSSDC Master Catalog

Two Line Element Set (TLE):
1 19810U 89014D   23083.42956601  .00000225  00000-0  00000-0 0  9999
2 19810  64.1335 180.1784 6570230 259.2172  25.8539  2.07395610258104
Source of the keplerian elements: AFSPC